[[{"header":{"parameterUnit":"m.s-1","parameterCategory":1,"la1":30.2991,"la2":30.254,"lo1":-89.0895,"lo2":-89.0444,"dy":0.0017,"dx":0.0017,"nx":28,"ny":28,"refTime":"2024-04-20T09:00:00:Z","depth":0,"parameterNumber":2,"parameterNumberName":"U-component_of_WINDS"},"data":[0,0,0,0,0,0,0,0,0,0,0,0,0,0,0,0,0,0,0,0,0,0,0,0,0,0,0,0,0,0,0,0,0,0,0,0,0,0,0,0,0,0,0,0,0,0,0,0,0,0,0,0,0,0,0,0,0,0,-0.7093,-0.7093,0,-0.7085,-0.7085,-0.7085,-0.7044,-0.7043,-0.7042,-0.7041,-0.7035,-0.7036,-0.7037,0,0,0,0,0,0,0,0,0,0,0,0,0,-0.7073,-0.7073,-0.7093,-0.7093,-0.7092,-0.7085,-0.7085,-0.7085,-0.7044,-0.7043,-0.7042,-0.7041,-0.7035,-0.7036,-0.7037,0,0,0,0,0,0,0,0,0,0,0,0,0,-0.7075,-0.7073,-0.7093,-0.7071,-0.7069,-0.7085,-0.7085,-0.7085,-0.7044,-0.7043,-0.7041,-0.704,-0.7035,-0.7036,-0.7037,-0.7073,0,0,-0.704,-0.7041,0,0,0,0,0,0,0,0,-0.7075,-0.7076,-0.7074,-0.7073,-0.707,-0.7064,-0.7076,-0.7081,-0.7045,-0.7054,-0.7041,-0.7039,-0.7046,-0.7046,-0.7048,-0.7073,-0.7073,-0.7041,-0.7041,-0.7042,-0.7042,0,0,0,0,0,0,0,-0.7075,-0.7076,-0.709,-0.7074,-0.7072,-0.7062,-0.7061,-0.7077,-0.7058,-0.7053,-0.705,-0.7049,-0.7045,-0.7047,-0.7048,-0.7073,-0.704,-0.7041,-0.7042,-0.7043,-0.7126,-0.7128,0,0,0,0,0,0,-0.7077,-0.7076,-0.709,-0.7089,-0.7069,-0.7064,-0.7062,-0.7068,-0.7058,-0.7055,-0.7051,-0.7048,-0.7046,-0.7046,-0.7047,-0.7089,-0.7042,-0.7043,-0.7043,-0.7125,-0.7127,-0.7129,0,0,0,0,0,0,-0.7077,-0.7079,-0.709,-0.7082,-0.7082,-0.7066,-0.7072,-0.7068,-0.707,-0.7056,-0.7053,-0.7056,-0.7045,-0.7046,-0.7067,-0.7088,-0.7043,-0.7044,-0.7123,-0.7126,-0.7128,-0.7173,0,0,0,0,0,0,-0.7077,-0.7079,-0.7093,-0.7082,-0.7083,-0.711,-0.7073,-0.7069,-0.7072,-0.7068,-0.7061,-0.7058,-0.7044,-0.7065,-0.7068,-0.7089,-0.7045,-0.7121,-0.7124,-0.7127,-0.717,-0.7177,-0.7183,0,0,0,0,0,-0.7076,-0.7107,-0.7094,-0.7096,-0.71,-0.7111,-0.7112,-0.7094,-0.7074,-0.7088,-0.7079,-0.7059,-0.7085,-0.7068,-0.7071,-0.7092,-0.712,-0.7123,-0.7127,-0.7167,-0.7175,-0.7183,0,0,0,0,0,0,-0.7121,-0.7105,-0.7091,-0.7118,-0.7116,-0.7104,-0.7121,-0.7103,-0.7108,-0.7104,-0.7081,-0.708,-0.7105,-0.71,-0.7081,-0.7127,-0.7099,-0.7103,-0.7129,-0.7137,-0.7143,-0.7144,-0.7046,0,0,0,0,0,-0.7134,-0.7144,-0.713,-0.7156,-0.7155,-0.7139,-0.7143,-0.7129,-0.7126,-0.7125,-0.7118,-0.7116,-0.7124,-0.713,-0.7137,-0.7168,-0.7166,-0.7185,-0.7191,-0.7197,-0.7201,-0.7217,-0.7225,-0.714,-0.714,-0.714,0,0,-0.7162,-0.7154,-0.7162,-0.7165,-0.7162,-0.7173,-0.7138,-0.7152,-0.716,-0.7128,-0.7147,-0.7141,-0.7138,-0.7165,-0.7176,-0.7162,-0.7223,-0.7201,-0.7205,-0.7207,-0.7221,-0.7229,-0.7236,-0.7142,-0.7142,-0.7141,0,0,-0.7218,-0.7213,-0.7234,-0.7231,-0.7226,-0.7214,-0.7219,-0.7209,-0.7204,-0.7222,-0.7198,-0.7207,-0.7222,-0.722,-0.7221,-0.7275,-0.7256,-0.7277,-0.7312,-0.7328,-0.7334,-0.734,-0.7359,-0.7366,-0.7281,-0.7281,-0.7281,0,-0.7253,-0.7268,-0.7247,-0.7262,-0.7263,-0.7233,-0.7254,-0.7252,-0.725,-0.7252,-0.7236,-0.7253,-0.7248,-0.7274,-0.7287,-0.7288,-0.7294,-0.7279,-0.7335,-0.7341,-0.7346,-0.7364,-0.7371,-0.7284,-0.7284,-0.7283,-0.7283,0,-0.7312,-0.7323,-0.734,-0.7338,-0.7341,-0.7359,-0.734,-0.7347,-0.7332,-0.7322,-0.7341,-0.7334,-0.7339,-0.7343,-0.733,-0.7367,-0.7358,-0.7339,-0.7311,-0.7357,-0.7373,-0.738,-0.7288,-0.7287,-0.7286,-0.7285,0,0,-0.7397,-0.7381,-0.7388,-0.7386,-0.7378,-0.7386,-0.7402,-0.7405,-0.7411,-0.741,-0.7423,-0.7435,-0.7417,-0.7418,-0.7404,-0.7417,-0.746,-0.7396,-0.7396,-0.7409,-0.75,-0.7515,-0.7523,-0.7447,-0.7448,-0.7449,-0.75,0,-0.7451,-0.7477,-0.7458,-0.7488,-0.7498,-0.7468,-0.7482,-0.7478,-0.7469,-0.7476,-0.7465,-0.7474,-0.7449,-0.745,-0.7462,-0.7452,-0.7478,-0.7448,-0.7459,-0.746,-0.7462,-0.7532,-0.7548,-0.7597,-0.7507,-0.7508,-0.7508,0,-0.7518,-0.7518,-0.7549,-0.7537,-0.7541,-0.7554,-0.7554,-0.7561,-0.7556,-0.7548,-0.7549,-0.753,-0.7545,-0.7517,-0.7537,-0.7517,-0.752,-0.7516,-0.7518,-0.7519,-0.7488,-0.7535,-0.7612,-0.7619,-0.7518,-0.7517,-0.7517,0,-0.7577,-0.7586,-0.7605,-0.7604,-0.7591,-0.7601,-0.7596,-0.7589,-0.7592,-0.7593,-0.7594,-0.7597,-0.7599,-0.7601,-0.7584,-0.7565,-0.7606,-0.7577,-0.7601,-0.7601,-0.7612,-0.7611,-0.769,-0.7613,-0.7613,-0.7613,-0.7612,0,-0.764,-0.766,-0.7632,-0.7644,-0.7665,-0.7642,-0.7664,-0.7656,-0.765,-0.766,-0.7634,-0.7644,-0.762,-0.7627,-0.7614,-0.7632,-0.7633,-0.7628,-0.7624,-0.763,-0.7631,-0.7633,-0.7629,-0.7614,-0.7614,-0.7614,-0.7613,0,-0.7711,-0.7693,-0.7712,-0.7697,-0.7693,-0.771,-0.7697,-0.7708,-0.7696,-0.7709,-0.771,-0.7692,-0.7699,-0.7681,-0.7687,-0.7677,-0.7704,-0.7695,-0.7706,-0.7703,-0.7728,-0.7726,-0.7812,-0.7822,-0.7737,-0.7738,-0.7739,0,-0.7752,-0.7766,-0.7753,-0.7757,-0.7753,-0.7761,-0.7763,-0.774,-0.7744,-0.7738,-0.7749,-0.7754,-0.7757,-0.777,-0.7757,-0.776,-0.7751,-0.7781,-0.7752,-0.7757,-0.7752,-0.7752,-0.7753,-0.7787,-0.7788,-0.7789,-0.779,0,-0.7827,-0.7817,-0.7821,-0.7822,-0.7825,-0.7825,-0.7823,-0.7828,-0.7803,-0.7809,-0.7815,-0.7817,-0.7821,-0.7826,-0.7827,-0.7822,-0.7802,-0.7799,-0.7805,-0.7812,-0.7818,-0.7815,-0.7723,-0.7797,-0.7797,-0.7796,-0.7796,-0.7795,-0.7885,-0.7896,-0.7888,-0.7893,-0.7888,-0.7887,-0.7895,-0.7884,-0.7889,-0.789,-0.7876,-0.7885,-0.7879,-0.7877,-0.7874,-0.7881,-0.7867,-0.7876,-0.7878,-0.788,-0.7885,-0.7816,-0.7881,-0.788,-0.788,-0.788,-0.788,0,-0.7959,-0.7952,-0.7957,-0.7954,-0.7958,-0.7937,-0.7933,-0.7938,-0.7946,-0.7942,-0.7944,-0.7951,-0.7956,-0.7943,-0.7945,-0.7953,-0.7944,-0.7955,-0.7954,-0.7953,-0.7896,-0.7891,-0.7962,-0.7962,-0.7962,-0.7962,-0.7962,-0.7962,-0.7998,-0.8016,-0.8005,-0.802,-0.8012,-0.802,-0.802,-0.8018,-0.8014,-0.8023,-0.8026,-0.8017,-0.8009,-0.801,-0.8013,-0.8009,-0.8011,-0.8025,-0.8018,-0.7965,-0.7958,-0.795,-0.7945,-0.8026,-0.8026,-0.8074,-0.8075,-0.8075]},{"header":{"parameterUnit":"m.s-1","parameterCategory":1,"la1":30.2991,"la2":30.254,"lo1":-89.0895,"lo2":-89.0444,"dy":0.0017,"dx":0.0017,"nx":28,"ny":28,"refTime":"2024-04-20T09:00:00:Z","depth":0,"parameterNumber":3,"parameterNumberName":"V-component_of_WINDS"},"data":[0,0,0,0,0,0,0,0,0,0,0,0,0,0,0,0,0,0,0,0,0,0,0,0,0,0,0,0,0,0,0,0,0,0,0,0,0,0,0,0,0,0,0,0,0,0,0,0,0,0,0,0,0,0,0,0,0,0,-8.0255,-8.0256,0,-8.033,-8.033,-8.0331,-8.0225,-8.0221,-8.0217,-8.0214,-8.0284,-8.029,-8.0295,0,0,0,0,0,0,0,0,0,0,0,0,0,-8.0016,-8.0021,-8.0255,-8.0256,-8.0257,-8.0329,-8.033,-8.0331,-8.0225,-8.0221,-8.0216,-8.0212,-8.0283,-8.0289,-8.0295,0,0,0,0,0,0,0,0,0,0,0,0,0,-8.0108,-8.0022,-8.0255,-8.0213,-8.021,-8.0329,-8.033,-8.0332,-8.0226,-8.0221,-8.0215,-8.021,-8.028,-8.0288,-8.0296,-8.0459,0,0,-8.0321,-8.0324,0,0,0,0,0,0,0,0,-8.0103,-8.0117,-8.0218,-8.0216,-8.0213,-8.0262,-8.0272,-8.0374,-8.0228,-8.022,-8.0213,-8.0207,-8.0281,-8.0289,-8.0315,-8.0462,-8.0465,-8.0322,-8.0327,-8.033,-8.0332,0,0,0,0,0,0,0,-8.0096,-8.0113,-8.0284,-8.022,-8.0217,-8.0188,-8.0195,-8.0291,-8.0281,-8.022,-8.0213,-8.0223,-8.0279,-8.0307,-8.0316,-8.0466,-8.0321,-8.0329,-8.0334,-8.0337,-8.0749,-8.0755,0,0,0,0,0,0,-8.0096,-8.0108,-8.0282,-8.0287,-8.0143,-8.0197,-8.0205,-8.0252,-8.028,-8.0279,-8.0228,-8.0218,-8.0296,-8.0306,-8.0318,-8.051,-8.033,-8.0337,-8.0342,-8.0743,-8.075,-8.0757,0,0,0,0,0,0,-8.0091,-8.0112,-8.0279,-8.0195,-8.0215,-8.0208,-8.0261,-8.0256,-8.0285,-8.0286,-8.0283,-8.026,-8.0292,-8.0306,-8.0425,-8.051,-8.0341,-8.0348,-8.0736,-8.0745,-8.0754,-8.0895,0,0,0,0,0,0,-8.0085,-8.0111,-8.0174,-8.0198,-8.0219,-8.0387,-8.0266,-8.0262,-8.03,-8.0288,-8.0315,-8.0314,-8.0289,-8.0413,-8.0433,-8.0519,-8.0355,-8.0728,-8.074,-8.0751,-8.0882,-8.0907,-8.0929,0,0,0,0,0,-8.0077,-8.021,-8.0178,-8.02,-8.0298,-8.0392,-8.0404,-8.0375,-8.0307,-8.037,-8.037,-8.0313,-8.0498,-8.0426,-8.0447,-8.0537,-8.0722,-8.0737,-8.075,-8.0872,-8.0903,-8.0928,0,0,0,0,0,0,-8.0195,-8.0212,-8.0177,-8.0322,-8.0357,-8.0374,-8.0452,-8.0408,-8.0461,-8.0447,-8.0406,-8.0413,-8.054,-8.055,-8.047,-8.0695,-8.0599,-8.0617,-8.0684,-8.0713,-8.0736,-8.0731,-8.0361,0,0,0,0,0,-8.0238,-8.0315,-8.0325,-8.0452,-8.0471,-8.0459,-8.0498,-8.0473,-8.0506,-8.0519,-8.0528,-8.0561,-8.0626,-8.067,-8.073,-8.0883,-8.0887,-8.0955,-8.0978,-8.0997,-8.1014,-8.1095,-8.1125,-8.0802,-8.0802,-8.0802,0,0,-8.0327,-8.0347,-8.0397,-8.0476,-8.05,-8.0578,-8.0472,-8.0559,-8.0616,-8.0532,-8.0645,-8.0652,-8.0686,-8.0822,-8.0882,-8.0834,-8.1104,-8.1015,-8.103,-8.1036,-8.1112,-8.1143,-8.117,-8.0811,-8.081,-8.0808,0,0,-8.0531,-8.0554,-8.0662,-8.0688,-8.0726,-8.0717,-8.0743,-8.0767,-8.077,-8.0883,-8.0821,-8.0887,-8.1001,-8.1028,-8.1056,-8.127,-8.1219,-8.1291,-8.1413,-8.1492,-8.1518,-8.154,-8.1616,-8.1644,-8.1307,-8.1308,-8.1308,0,-8.0637,-8.0755,-8.0723,-8.0815,-8.0851,-8.0781,-8.0889,-8.0915,-8.097,-8.0996,-8.0942,-8.1083,-8.1101,-8.1242,-8.1295,-8.132,-8.1347,-8.1288,-8.1517,-8.1539,-8.1559,-8.1631,-8.166,-8.1316,-8.1315,-8.1314,-8.1313,0,-8.0883,-8.0965,-8.1048,-8.1106,-8.1151,-8.1251,-8.1232,-8.1281,-8.1252,-8.1248,-8.1363,-8.1382,-8.1445,-8.1477,-8.1448,-8.1614,-8.1583,-8.1524,-8.1426,-8.1599,-8.1666,-8.1693,-8.1328,-8.1325,-8.1323,-8.132,0,0,-8.1163,-8.1202,-8.1233,-8.1258,-8.1294,-8.1356,-8.1452,-8.1516,-8.1559,-8.1599,-8.1677,-8.1776,-8.1721,-8.1753,-8.1727,-8.1797,-8.1965,-8.1728,-8.1728,-8.1772,-8.2148,-8.2193,-8.2225,-8.1931,-8.1936,-8.194,-8.2145,0,-8.1366,-8.1535,-8.1509,-8.167,-8.1746,-8.168,-8.1763,-8.1794,-8.1793,-8.1855,-8.1852,-8.1923,-8.1845,-8.1865,-8.1931,-8.193,-8.204,-8.1915,-8.2003,-8.2006,-8.1997,-8.226,-8.2307,-8.25,-8.2171,-8.2175,-8.2179,0,-8.1625,-8.1677,-8.1848,-8.1873,-8.1903,-8.1979,-8.2035,-8.2096,-8.2128,-8.2122,-8.216,-8.212,-8.2214,-8.2116,-8.2244,-8.216,-8.2194,-8.2199,-8.2206,-8.2213,-8.2103,-8.2274,-8.256,-8.2589,-8.2219,-8.2216,-8.2213,0,-8.1812,-8.1925,-8.2041,-8.2064,-8.2097,-8.2151,-8.2167,-8.2194,-8.2234,-8.2282,-8.2307,-8.2365,-8.2397,-8.2441,-8.2418,-8.2349,-8.2551,-8.245,-8.2547,-8.2548,-8.2593,-8.259,-8.2889,-8.2615,-8.2615,-8.2614,-8.2614,0,-8.2042,-8.2149,-8.2126,-8.2197,-8.2314,-8.2283,-8.2399,-8.2406,-8.2431,-8.2501,-8.2447,-8.2513,-8.2479,-8.2543,-8.2525,-8.2633,-8.2648,-8.2645,-8.2639,-8.265,-8.265,-8.2671,-8.2657,-8.2622,-8.262,-8.2619,-8.2617,0,-8.2271,-8.226,-8.2382,-8.2403,-8.2411,-8.2496,-8.2513,-8.2579,-8.2574,-8.2664,-8.2683,-8.2675,-8.2747,-8.2728,-8.2806,-8.2794,-8.2931,-8.2908,-8.2921,-8.2916,-8.3014,-8.3005,-8.3336,-8.3378,-8.3078,-8.3081,-8.3083,0,-8.2418,-8.2499,-8.2529,-8.2574,-8.2594,-8.2666,-8.2707,-8.2678,-8.2722,-8.2766,-8.2827,-8.2894,-8.2947,-8.3065,-8.3065,-8.3124,-8.3102,-8.3214,-8.311,-8.3119,-8.3103,-8.3099,-8.3106,-8.3234,-8.3238,-8.3241,-8.3243,0,-8.2681,-8.2671,-8.2733,-8.2795,-8.2845,-8.2891,-8.2931,-8.297,-8.2944,-8.2996,-8.3071,-8.3112,-8.3193,-8.326,-8.3315,-8.3328,-8.3282,-8.3276,-8.3301,-8.3313,-8.3318,-8.3317,-8.2977,-8.3268,-8.3266,-8.3264,-8.3262,-8.3261,-8.2873,-8.2942,-8.2974,-8.3045,-8.3073,-8.3112,-8.3175,-8.3179,-8.3241,-8.3306,-8.3284,-8.3369,-8.3399,-8.3467,-8.3488,-8.3552,-8.351,-8.3547,-8.3556,-8.3566,-8.3578,-8.3308,-8.3562,-8.3561,-8.3561,-8.356,-8.3559,0,-8.3132,-8.315,-8.3216,-8.3275,-8.3331,-8.3284,-8.3326,-8.3375,-8.3451,-8.3484,-8.3537,-8.3622,-8.3688,-8.3693,-8.3754,-8.3804,-8.3785,-8.3821,-8.3817,-8.3821,-8.3613,-8.3585,-8.3837,-8.3837,-8.3836,-8.3836,-8.3836,-8.3836,-8.3274,-8.3388,-8.3383,-8.351,-8.3526,-8.3611,-8.3639,-8.3674,-8.37,-8.3798,-8.3853,-8.3856,-8.3877,-8.3939,-8.3997,-8.3996,-8.4021,-8.4066,-8.4058,-8.3863,-8.3836,-8.3809,-8.3783,-8.4072,-8.4072,-8.426,-8.4262,-8.4263]}]]